Home > Weather > Aschaffenburg > Past weeks

Flag for Germany Past Weather in Aschaffenburg, Bavaria, Germany — Yesterday and Last 2 Weeks

Now
72 °F

Scattered showers. Partly sunny.


Feels Like: 71 °F
Forecast: 61 / 81 °F
Wind: 9 mph from Northeast

Location: Frankfurt-M-Flughafen Airport

Current Time: Jul 23, 2016 at 9:30:36 PM

Latest Report: Jul 23, 2016 at 8:50 PM


Visibility: N/A

Pressure: 30.04 "Hg

Humidity: 83%

Dew Point: 66 °F

Location of AschaffenburgLocation

Past Weather in Aschaffenburg — Graph

°F

Aschaffenburg Temperature Yesterday

Maximum temperature yesterday: 88 °F (at 4:20 PM)
Minimum temperature yesterday: 64 °F (at 4:20 AM)
Average temperature yesterday: 74 °F

High & Low Weather Summary for the Past Weeks

 TemperatureHumidityPressure
High95 °F (Jul 20, 2:50 PM)100% (Jul 22, 4:50 AM)30.30 "Hg (Jul 22, 4:50 AM)
Low50 °F (Jul 16, 2:50 AM)22% (Jul 20, 6:20 PM)29.80 "Hg (Jul 10, 8:50 PM)
Average70 °F64%30.05 "Hg
* Reported Jul 8 8:20 PM — Jul 23 8:20 PM, Aschaffenburg, Weather by CustomWeather, © 2016

Note: Actual official high and low records may vary slightly from our data, if they occured in-between our weather recording intervals... More about our weather records

Advertising

Aschaffenburg Weather History for the Previous 24 Hours

Scroll right to see more
 ConditionsComfort  
Time TempWeatherWind HumidityBarometerVisibility
8:20 PM
Sat, Jul 23
72 °FSprinkles. Broken clouds.6 mph88%30.04 "HgN/A
7:50 PM72 °FSprinkles. Broken clouds.5 mph88%30.04 "HgN/A
7:20 PM72 °FSprinkles. Scattered clouds.6 mph88%30.01 "HgN/A
6:50 PM70 °FThunderstorms. Scattered clouds.9 mph94%30.04 "HgN/A
6:20 PM72 °FThunderstorms. Scattered clouds.9 mph88%30.01 "HgN/A
5:50 PM77 °FScattered clouds.8 mph65%30.01 "HgN/A
5:20 PM81 °FScattered clouds.5 mph54%30.01 "HgN/A
4:50 PM79 °FScattered clouds.5 mph61%30.01 "HgN/A
4:20 PM79 °FScattered clouds.3 mph58%30.04 "HgN/A
3:50 PM79 °FScattered clouds.5 mph58%30.04 "HgN/A
3:20 PM77 °FScattered clouds.7 mph65%30.04 "HgN/A
2:50 PM77 °FScattered clouds.6 mph65%30.04 "HgN/A
2:20 PM79 °FScattered clouds.7 mph61%30.04 "HgN/A
1:50 PM75 °FBroken clouds.6 mph69%30.04 "HgN/A
1:20 PM75 °FPartly sunny.6 mph69%30.04 "HgN/A
12:50 PM73 °FPartly sunny.7 mph74%30.04 "HgN/A
12:20 PM73 °FPartly sunny.10 mph74%30.07 "HgN/A
11:50 AM73 °FPartly sunny.10 mph74%30.04 "HgN/A
11:20 AM73 °FBroken clouds.8 mph74%30.07 "HgN/A
10:50 AM72 °FBroken clouds.6 mph83%30.04 "HgN/A
10:20 AM70 °FBroken clouds.2 mph83%30.04 "HgN/A
9:50 AM70 °FBroken clouds.1 mph83%30.04 "HgN/A
9:20 AM68 °FMostly cloudy.2 mph88%30.04 "Hg4 mi
8:50 AM66 °FFog.2 mph94%30.04 "Hg3 mi
8:20 AM66 °FLight rain. Fog.5 mph94%30.04 "Hg2 mi
7:50 AM66 °FLight rain. Fog.3 mph94%30.04 "Hg2 mi
7:20 AM66 °FLight rain. Fog.5 mph94%30.01 "Hg2 mi
6:50 AM66 °FLight rain. Fog.3 mph94%30.01 "Hg2 mi
6:20 AM66 °FLight rain. Fog.3 mph94%30.01 "Hg2 mi
5:50 AM66 °FLight rain. Fog.3 mph94%30.01 "Hg2 mi
5:20 AM66 °FLight rain. Partly cloudy.7 mph94%30.01 "Hg3 mi
4:50 AM66 °FLight rain. Partly cloudy.5 mph94%30.01 "Hg6 mi
4:20 AM66 °FLight rain. Partly cloudy.6 mph94%30.01 "HgN/A
3:50 AM66 °FLight rain. Partly cloudy.7 mph94%30.01 "HgN/A
3:20 AM66 °FLight rain. Partly cloudy.7 mph94%30.01 "HgN/A
2:50 AM66 °FLight rain. Partly cloudy.7 mph94%30.01 "HgN/A
2:20 AM66 °FSprinkles. Partly cloudy.2 mph94%30.01 "HgN/A
1:50 AM66 °FSprinkles. Partly cloudy.3 mph94%30.04 "HgN/A
1:20 AM66 °FSprinkles. Partly cloudy.3 mph94%30.04 "HgN/A
12:50 AM66 °FSprinkles. Partly cloudy.3 mph94%30.04 "HgN/A
12:20 AM66 °FSprinkles. Partly cloudy.12 mph94%30.04 "HgN/A
11:50 PM
Fri, Jul 22
66 °FRain showers. Partly cloudy.9 mph94%30.04 "HgN/A
11:20 PM68 °FSprinkles. Partly cloudy.8 mph88%30.01 "HgN/A
10:50 PM68 °FThundershowers. Partly cloudy.8 mph88%30.01 "HgN/A
10:20 PM68 °FSprinkles. Partly sunny.13 mph88%29.98 "HgN/A
9:50 PM70 °FThunderstorms. Broken clouds.16 mph83%30.01 "Hg6 mi
9:20 PM70 °FStrong thunderstorms. Broken clouds.16 mph78%29.98 "Hg3 mi
Weather by CustomWeather, © 2016

See weather overviewHow to use our weather pages